IRIDIUM 118

Last updated on Fri Sep 11 2026 00:03:06 GMT+0000 (Coordinated Universal Time)

1 42807U 17039E 26253.50091098 .00000151 00000+0 46856-4 0 9990 2 42807 86.3989 317.9936 0002247 95.9386 264.2066 14.34217057482171
UTC large
Height (km)
Speed (km/s)
/
Latitude / Longitude
Inclination (degrees)
Orbital Period (minutes)
Azimuth
Elevation
Range (km)
Doppler Factor

Next 0 passes for location: London (51.5072 / 0.1276)

No passes found over London.
IRIDIUM 118